Regional Weather Roundup
Issued by NWS

Home | Current Version | Previous Version | Graphics & Text | Print | Product List | Glossary On
Versions: 1 2 3 4 5 6 7 8 9 10 11 12 13 14 15 16 17 18 19 20 21 22 23 24 25 26 27 28 29 30 31 32 33 34 35 36 37 38 39 40 41 42 43 44 45 46 47 48 49 50
000
ASUS43 KOAX 201610
RWRNE

WEATHER ROUNDUP FOR NEBRASKA
NATIONAL WEATHER SERVICE OMAHA NE
1100 AM CDT SUN MAY 20 2018

NOTES: SATELLITE DATA IS BEING USED TO AUGMENT CLOUD COVER ABOVE
       12000 FEET.
       "FAIR" INDICATES FEW OR NO CLOUDS BELOW 12,000 FEET WITH NO
       SIGNIFICANT WEATHER AND/OR OBSTRUCTIONS TO VISIBILITY.


NEZ001>004-019>022-054>056-201700-
NEBRASKA PANHANDLE

CITY           SKY/WX    TMP DP  RH WIND       PRES   REMARKS
SCOTTSBLUFF    SUNNY     53  37  54 CALM      30.25F
ALLIANCE       PTSUNNY   52  39  61 NE6       30.24F
CHADRON        SUNNY     52  39  61 CALM      30.25F
GORDON         FAIR      53  38  56 CALM      30.25S
KIMBALL        SUNNY     48  38  66 S5        30.26S
SIDNEY         SUNNY     52  36  54 NW5       30.25F
$$

NEZ057>060-069>072-079>082-201700-
SOUTHWEST NEBRASKA

CITY           SKY/WX    TMP DP  RH WIND       PRES   REMARKS
NORTH PLATTE   CLOUDY    52  44  74 N9        30.22S
IMPERIAL       PTSUNNY   57  43  59 N12       30.22S
LEXINGTON      CLOUDY    53  51  94 N8        30.19S FOG
MCCOOK         CLOUDY    53  46  77 N15       30.19F
OGALLALA       CLOUDY    55  42  60 N7        30.23R
$$

NEZ005>010-023>029-035>040-094-201700-
NORTH CENTRAL NEBRASKA

CITY           SKY/WX    TMP DP  RH WIND       PRES   REMARKS
VALENTINE      CLOUDY    55  40  56 NE8       30.24F
AINSWORTH      CLOUDY    52  43  71 N9        30.22F
BROKEN BOW     CLOUDY    54  48  80 N10       30.19S
O`NEILL        CLOUDY    54  46  75 N8        30.22R
ORD            LGT RAIN  52  50  93 N10       30.18R FOG
THEDFORD       CLOUDY    54  44  68 N8        30.23S
$$

NEZ041-046>049-061>064-073>077-083>087-201700-
SOUTH CENTRAL NEBRASKA

CITY           SKY/WX    TMP DP  RH WIND       PRES   REMARKS
GRAND ISLAND   CLOUDY    54  53  97 N13       30.17R
AURORA         CLOUDY    55  55 100 NE14      30.15S
HASTINGS       CLOUDY    56  53  90 N14       30.16R
HEBRON         CLOUDY    57  56  94 N8        30.12S FOG
HOLDREGE       CLOUDY    54  54  99 N12       30.16S
KEARNEY        CLOUDY    54  52  93 NE13      30.17S FOG
YORK           LGT RAIN  54  54 100 NE12      30.15R
$$

NEZ011>018-030>034-042>045-201700-
NORTHEAST NEBRASKA

CITY           SKY/WX    TMP DP  RH WIND       PRES   REMARKS
NORFOLK        CLOUDY    52  50  93 NE9       30.16S
ALBION         CLOUDY    53  51  94 NE8       30.18S FOG
BLAIR          LGT RAIN  54  52  94 NE6       30.16R
COLUMBUS       CLOUDY    53  51  93 N13       30.17R
FREMONT        CLOUDY    55  51  86 NE8       30.15S
TEKAMAH        CLOUDY    54  50  86 NE10      30.16R
WAYNE          RAIN      51  50  97 NE8       30.18S
$$

NEZ050>053-065>068-078-088>093-201700-
SOUTHEAST NEBRASKA

CITY           SKY/WX    TMP DP  RH WIND       PRES   REMARKS
LINCOLN        LGT RAIN  57  54  89 NE12      30.13R FOG
OMAHA EPPLEY   CLOUDY    58  53  84 NE10      30.13S
BEATRICE       CLOUDY    62  58  87 N8        30.10S FOG
FALLS CITY     CLOUDY    65  59  81 E7        30.08F
NEBRASKA CITY  CLOUDY    62  59  91 NE13      30.11S
PLATTSMOUTH    CLOUDY    58  54  84 N9        30.12R
$$

NEZ044-045-051>053-067-201700-
OMAHA AREA

CITY           SKY/WX    TMP DP  RH WIND       PRES   REMARKS
OMAHA EPPLEY   CLOUDY    58  53  84 NE10      30.13S
BLAIR          LGT RAIN  54  52  94 NE6       30.16R
FREMONT        CLOUDY    55  51  86 NE8       30.15S
MILLARD        CLOUDY    58  55  89 N6        30.13S
OFFUTT AFB     CLOUDY    59  54  85 N9        30.11S
PLATTSMOUTH    CLOUDY    58  54  84 N9        30.12R
WAHOO          RAIN      55  52  89 N12       30.13S
$$



USA.gov is the U.S. government's official web portal to all federal, state and local government web resources and services.